Terminal Aerodrome Forecast
Issued by NWS Houston/Galveston TX

Home | Current Version | Previous Version | Text Only | Print | Product List | Glossary On
Versions: 1 2 3 4 5 6 7 8 9 10 11 12 13 14 15 16 17 18 19 20 21 22 23 24 25 26 27 28 29 30 31 32 33 34 35 36 37 38 39 40 41 42 43 44 45 46 47 48 49 50
000
FTUS44 KHGX 311747 AAA
TAFHOU
TAF AMD
KHOU 311747Z 3118/0118 09011G17KT P6SM SCT030 BKN180
      TEMPO 3118/3120 BKN025
     FM312000 11014KT P6SM BKN020 OVC030
     FM010300 13011KT P6SM VCSH OVC012
     FM010600 14009KT 4SM -RA BR OVC009
     FM011000 16006KT P6SM BKN010
     FM011500 20008KT P6SM BKN015=

USA.gov is the U.S. government's official web portal to all federal, state and local government web resources and services.